Miyakojima, Japan

9:54 PM JST on April 22, 2018 (GMT +0900)
Miyako

Weather History for ROMY - November, 2013

Change the Weather History Date:

Wednesday, November 6, 2013

  Actual Average Record
Temperature  
Mean Temperature 76 °F -  
Max Temperature 80 °F 75 °F 84 °F (2003)
Min Temperature 71 °F 67 °F 68 °F (2012)
Cooling Degree Days 10    
Growing Degree Days 26 (Base 50)    
Moisture  
Dew Point 69 °F    
Average Humidity 74    
Maximum Humidity 88    
Minimum Humidity 63    
Precipitation  
Precipitation 0.00 in - - ()
Sea Level Pressure  
Sea Level Pressure 30.07 in    
Wind  
Wind Speed 7 mph ()    
Max Wind Speed 12 mph    
Max Gust Speed -    
Visibility 6.2 miles    
Events      
Averages and records for this station are not official NWS values.
T = Trace of Precipitation, MM = Missing Value Source: Averaged Metar Reports

Daily Weather History Graph

Daily Weather History Graph

Search for Another Location

Airport or City:

Astronomy

Nov. 06, 2013 Rise Set
Actual Time 6:48 AM JST 5:55 PM JST
Civil Twilight 6:25 AM JST 6:19 PM JST
Nautical Twilight 5:58 AM JST 6:46 PM JST
Astronomical Twilight 5:31 AM JST 7:13 PM JST
Moon 9:20 AM JST (11/6) 8:30 PM JST (11/6)
Length of Visible Light 11h 54m
Length of Day
11h 06m
Waxing Crescent, 9% of the Moon is Illuminated
Nov 6
Waxing Crescent
Nov 10
First Quarter
Nov 18
Full
Nov 26
Last Quarter
Dec 3
New

Hourly Weather History & Observations

Time (JST) Temp. Heat Index Dew Point Humidity Pressure Visibility Wind Dir Wind Speed Gust Speed Precip Events Conditions
12:00 AM 75 °F - 68 °F 72% 30.13 in - East 9.2 mph - -  
6:00 AM 73 °F - 68 °F 80% 30.10 in 6 mi East 3.5 mph - -   Mostly Cloudy
6:30 AM 73.4 °F - 68.0 °F 83% 30.06 in 5.0 mi East 6.9 mph - N/A   Mostly Cloudy
7:00 AM 73.4 °F - 68.0 °F 83% 30.09 in 6.2 mi East 8.1 mph - N/A   Mostly Cloudy
8:00 AM 75.2 °F - 68.0 °F 78% 30.09 in 6.2 mi East 8.1 mph - N/A   Scattered Clouds
9:00 AM 78 °F - 68 °F 65% 30.12 in 6 mi East 9.2 mph - -   Scattered Clouds
9:00 AM 78.8 °F - 68.0 °F 69% 30.09 in 6.2 mi East 8.1 mph - N/A   Partly Cloudy
10:00 AM 80.6 °F 83.9 °F 69.8 °F 70% 30.09 in 6.2 mi East 10.4 mph - N/A   Partly Cloudy
11:00 AM 77.0 °F - 68.0 °F 74% 30.09 in 6.2 mi East 10.4 mph - N/A   Scattered Clouds
12:00 PM 79 °F - 69 °F 63% 30.10 in 9 mi ENE 8.1 mph - -   Mostly Cloudy
12:00 PM 80.6 °F 83.9 °F 69.8 °F 70% 30.06 in 6.2 mi ENE 11.5 mph - N/A   Partly Cloudy
1:00 PM 80.6 °F 83.9 °F 69.8 °F 70% 30.06 in 6.2 mi ENE 10.4 mph - N/A   Scattered Clouds
2:00 PM 80.6 °F 83.9 °F 69.8 °F 70% 30.04 in 6.2 mi ENE 10.4 mph - N/A   Partly Cloudy
3:00 PM 80 °F - 70 °F 64% 30.04 in 6 mi NE 5.8 mph - -   Scattered Clouds
3:00 PM 78.8 °F - 69.8 °F 74% 30.01 in 6.2 mi ENE 9.2 mph - N/A   Partly Cloudy
4:00 PM 78.8 °F - 69.8 °F 74% 30.04 in 6.2 mi ENE 9.2 mph - N/A   Partly Cloudy
5:00 PM 75.2 °F - 68.0 °F 78% 30.04 in 6.2 mi NE 6.9 mph - N/A   Partly Cloudy
6:00 PM 77 °F - 69 °F 71% 30.06 in 6 mi NE 6.9 mph - -   Scattered Clouds
6:00 PM 75.2 °F - 68.0 °F 78% 30.04 in 6.2 mi NE 5.8 mph - N/A   Partly Cloudy
7:00 PM 73.4 °F - 68.0 °F 83% 30.06 in 6.2 mi NE 5.8 mph - N/A   Partly Cloudy
8:00 PM 71.6 °F - 68.0 °F 88% 30.06 in 6.2 mi NE 4.6 mph - N/A   Partly Cloudy
9:00 PM 75 °F - 68 °F 74% 30.09 in 6 mi NE 8.1 mph - -   Scattered Clouds